West Columbia, SC

9:20 AM EDT on August 24, 2016 (GMT -0400)
Columbia Metro

Weather History for KCAE - April, 2013

Change the Weather History Date:

Saturday, April 6, 2013

  Actual Average Record
Temperature  
Mean Temperature 56 °F 61 °F  
Max Temperature 74 °F 74 °F 92 °F (2010)
Min Temperature 37 °F 48 °F 28 °F (1891)
Degree Days  
Heating Degree Days 9 6  
Month to date heating degree days 50 36  
Since 1 July heating degree days 2209 2445  
Cooling Degree Days 0 2  
Month to date cooling degree days 3 8  
Year to date cooling degree days 41 30  
Growing Degree Days 5 (Base 50)    
Moisture  
Dew Point 37 °F    
Average Humidity 57    
Maximum Humidity 92    
Minimum Humidity 22    
Precipitation  
Precipitation 0.00 in 0.09 in 2.28 in (1963)
Month to date precipitation 1.54 0.56  
Year to date precipitation 11.91 11.48  
Sea Level Pressure  
Sea Level Pressure 30.15 in    
Wind  
Wind Speed 4 mph (ESE)    
Max Wind Speed 14 mph    
Max Gust Speed 18 mph    
Visibility 10 miles    
Events      
T = Trace of Precipitation, MM = Missing Value Source: NWS Daily Summary

Daily Weather History Graph

Daily Weather History Graph

Search for Another Location

Airport or City:

Trip Planner

Search our weather history database for the weather conditions in past years. The results will help you decide how hot, cold, wet, or windy it might be!

Date:

Astronomy

Apr. 06, 2013 Rise Set
Actual Time 7:04 AM EDT 7:49 PM EDT
Civil Twilight 6:39 AM EDT 8:14 PM EDT
Nautical Twilight 6:09 AM EDT 8:44 PM EDT
Astronomical Twilight 5:39 AM EDT 9:15 PM EDT
Moon 4:37 AM EDT (4/6) 4:25 PM EDT (4/6)
Length of Visible Light 13h 34m
Length of Day
12h 44m
Waning Crescent, 15% of the Moon is Illuminated
Apr 6
Waning Crescent
Apr 10
New
Apr 18
First Quarter
Apr 25
Full
May 2
Last Quarter

Hourly Weather History & Observations

Time (EDT) Temp. Windchill Dew Point Humidity Pressure Visibility Wind Dir Wind Speed Gust Speed Precip Events Conditions
12:56 AM 45.0 °F - 42.1 °F 90% 30.05 in 10.0 mi Calm Calm - N/A   Clear
1:56 AM 44.1 °F - 39.9 °F 85% 30.06 in 10.0 mi Calm Calm - N/A   Clear
2:56 AM 41.0 °F 39.0 °F 37.0 °F 86% 30.07 in 10.0 mi West 3.5 mph - N/A   Clear
3:56 AM 39.9 °F - 37.0 °F 89% 30.08 in 9.0 mi Calm Calm - N/A   Clear
4:56 AM 39.9 °F - 35.1 °F 83% 30.09 in 10.0 mi Calm Calm - N/A   Clear
5:56 AM 39.0 °F 35.7 °F 36.0 °F 89% 30.11 in 10.0 mi West 4.6 mph - N/A   Clear
6:56 AM 37.0 °F 34.5 °F 34.0 °F 89% 30.14 in 10.0 mi West 3.5 mph - N/A   Clear
7:56 AM 41.0 °F - 37.0 °F 86% 30.16 in 7.0 mi Calm Calm - N/A   Clear
8:56 AM 48.0 °F - 44.1 °F 86% 30.19 in 10.0 mi Calm Calm - N/A   Clear
9:56 AM 59.0 °F - 39.0 °F 48% 30.19 in 10.0 mi ENE 6.9 mph - N/A   Clear
10:56 AM 66.0 °F - 37.0 °F 34% 30.20 in 10.0 mi NE 5.8 mph - N/A   Clear
11:56 AM 69.1 °F - 30.9 °F 24% 30.20 in 10.0 mi NE 10.4 mph - N/A   Clear
12:56 PM 70.0 °F - 32.0 °F 25% 30.20 in 10.0 mi East 6.9 mph - N/A   Clear
1:56 PM 72.0 °F - 33.1 °F 24% 30.19 in 10.0 mi Calm Calm - N/A   Clear
2:56 PM 73.0 °F - 32.0 °F 22% 30.16 in 10.0 mi Variable 4.6 mph - N/A   Clear
3:56 PM 73.9 °F - 33.1 °F 22% 30.14 in 10.0 mi ESE 10.4 mph - N/A   Clear
4:56 PM 73.0 °F - 32.0 °F 22% 30.13 in 10.0 mi Calm Calm - N/A   Scattered Clouds
5:56 PM 73.9 °F - 32.0 °F 21% 30.13 in 10.0 mi East 5.8 mph - N/A   Scattered Clouds
6:56 PM 71.1 °F - 36.0 °F 28% 30.14 in 10.0 mi ESE 8.1 mph - N/A   Scattered Clouds
7:56 PM 68.0 °F - 37.0 °F 32% 30.15 in 10.0 mi SE 5.8 mph - N/A   Scattered Clouds
8:56 PM 63.0 °F - 37.9 °F 40% 30.16 in 10.0 mi SE 5.8 mph - N/A   Clear
9:56 PM 63.0 °F - 39.9 °F 43% 30.19 in 10.0 mi South 6.9 mph - N/A   Clear
10:56 PM 60.1 °F - 42.1 °F 51% 30.21 in 10.0 mi ESE 5.8 mph - N/A   Clear
11:56 PM 57.9 °F - 41.0 °F 53% 30.22 in 10.0 mi SSE 4.6 mph - N/A   Clear